Terminal Aerodrome Forecast
Issued by NWS Brownsville, TX

Home | Current Version | Previous Version | Text Only | Print | Product List | Glossary On
Versions: 1 2 3 4 5 6 7 8 9 10 11 12 13 14 15 16 17 18 19
000
FTUS44 KBRO 250238 AAA
TAFMFE
TAF AMD
KMFE 250238Z 2503/2524 15009KT P6SM BKN013
      TEMPO 2503/2506 VRB28G40KT 2SM +TSRA BKN012CB
     FM250800 14008KT 6SM BR VCSH BKN008
     FM251500 14010KT P6SM OVC022=

USA.gov is the U.S. government's official web portal to all federal, state and local government web resources and services.